COSMOS 2323 (GLONASS)

Satellite information

Favourite Embed

Satellite Type and Status

PAYLOADIN ORBIT

Key statistics

Satellite COSMOS 2323 (GLONASS) at a glance.

Uptime

10800

Days in orbit

Revolutions

≈ 2.1

Per day

Orbit

MEO

Medium Earth Orbit

Inclination

65.5

Latest

Satellite identification and parameters

Extended collection of information and parameters for COSMOS 2323 (GLONASS).

Object identification

Identified? True

Debris? False

Object name: COSMOS 2323 (GLONASS)

International designator: 1995-068C

Object number (NORAD): 23736

Object ID (CCSDS): 23736

Country: COMMONWEALTH OF INDEPENDENT STATES (CIS)

Current information (Y/N): Y

RCS size: LARGE

Orbital parameters

Period: 675.727 minutes

Inclination: 65.4626 deg

SMA: 25507.87 km

Apoapsis: 19153.929 km

Periapsis: 19105.541 km

RAAN: 213.8235 deg

Eccentricy: 0.0009485

Argument of periapsis: 193.5453 deg

Mean anomaly: 248.1168 deg

Mean motion: 2.13103933 rev/day

Mean motion (dot): 0.00000107 rev/day2

B* drag term: 0.0 1/REarth

Two-line elements (TLE)

Creation date: July 6, 2025, 6:05 p.m.

Reference frame: TEME

Reference center: EARTH

Epoch: July 6, 2025, 3:10 a.m. UTC

TLE line 0: 0 COSMOS 2323 (GLONASS)

TLE line 1: 1 23736U 95068C 25187.13251741 .00000107 00000-0 00000-0 0 9994

TLE line 2: 2 23736 65.4626 213.8235 0009485 193.5453 248.1168 2.13103933229831

Live tracking on map

Real-time ground track for satellite COSMOS 2323 (GLONASS).

In-orbit conjunctions

A list of the most updated potential collisions computed for object COSMOS 2323 (GLONASS).

Target Orbit TCA Probability of collision Miss distance Type
SL-12 R/B(2) MEO 2024-11-07 02:56:04 TBA 4267.0 (m) ROCKET BODY

Associated space launch

GLONASS navigation satellites

COSMOS 2323 (GLONASS) was lifted into orbit during the mission ‘Proton | Uragan 69 to 71’, on board a Proton space rocket.

The launch took place on Dec. 14, 1995, 6:10 a.m. from 200/39 (200L).

For more information about the launch, click the button.

Launch to space Proton | Uragan 69 to 71
Proton | Uragan 69 to 71

Agency: N/A

Status: Launch Successful

Launch date: Dec. 14, 1995, 6:10 a.m. UTC

Rocket: Proton

Launch pad: 200/39 (200L)

Location: Baikonur Cosmodrome, Republic of Kazakhstan

...

Latest news about this satellite

There are no fresh news available about this satellite. Check back as we update our databases every day.


Newsletter sign-up

Weekly statistics, charts and insights to help you stay on top of the space industry.